Location: Newark
(9.1700°S, 36.6800°W)
Time: 16:05:12
(UTC+00:00)

N. Korean satellite - Visible Passes

Search period start: 22 October 2019 00:00
Search period end: 01 November 2019 00:00
Orbit: 455 x 508 km, 97.2° (Epoch: 21 October)

Date Brightness Start Highest point End Pass type
(mag) Time Alt. Az. Time Alt. Az. Time Alt. Az.
22 Oct 9.4 07:21:25 10° NE 07:24:27 24° ESE 07:27:32 10° SSE visible
22 Oct 9.6 20:37:38 10° SSW 20:40:24 22° WSW 20:43:07 10° NW visible
25 Oct 10.4 20:56:29 10° SW 20:57:44 12° WSW 20:58:59 10° W visible
26 Oct 9.9 07:14:00 10° ENE 07:16:39 19° ESE 07:19:19 10° SSE visible
29 Oct 8.7 07:30:37 10° NE 07:34:01 35° ESE 07:37:25 10° SSE visible
29 Oct 10.0 20:47:45 10° SW 20:49:51 15° WSW 20:51:56 10° WNW visible
30 Oct 10.2 07:06:45 10° ENE 07:08:48 14° ESE 07:10:51 10° SE visible
